Location: Pasarilla del Rebollar
(40.6790°N, 5.0062°W)
Time: 11:52:36
(UTC+00:00)

Cosmos 2360 Rocket - Pass Details

Date: 22 April 2026
Orbit: 831 x 845 km, 71.0° (Epoch: 20 May)

Event Time Altitude Azimuth Distance (km) Brightness Sun altitude
Rises 02:29:26 0° 341° (NNW) 3,410 5.8 -29.1°
Reaches altitude 10° 02:31:59 10° 347° (NNW) 2,473 5.1 -28.8°
Maximum altitude 02:37:28 48° 61° (ENE) 1,090 3.0 -28.2°
Drops below altitude 10° 02:42:56 10° 136° (SE) 2,459 4.5 -27.5°
Enters shadow 02:43:19 - 137° (SE) 2,601 4.7 -27.5°
